Year,Month,Day,Hour,Minute,Value (Times are PST for temperature in C)
2016,04,19,00,00,14.00
2016,04,19,00,01,14.00
2016,04,19,00,02,14.00
2016,04,19,00,03,13.90
2016,04,19,00,04,13.90
2016,04,19,00,05,13.90
2016,04,19,00,06,13.90
2016,04,19,00,07,13.80
2016,04,19,00,08,13.80
2016,04,19,00,09,13.80
2016,04,19,00,10,13.80
2016,04,19,00,11,13.80
2016,04,19,00,12,13.70
2016,04,19,00,13,13.70
2016,04,19,00,14,13.70
2016,04,19,00,15,13.70
2016,04,19,00,16,13.60
2016,04,19,00,17,13.60
2016,04,19,00,18,13.60
2016,04,19,00,19,13.60
2016,04,19,00,20,13.60
2016,04,19,00,21,13.50
2016,04,19,00,22,13.50
2016,04,19,00,23,13.50
2016,04,19,00,24,13.50
2016,04,19,00,25,13.50
2016,04,19,00,26,13.50
2016,04,19,00,27,13.50
2016,04,19,00,28,13.50
2016,04,19,00,29,13.50
2016,04,19,00,30,13.50
2016,04,19,00,31,13.60
2016,04,19,00,32,13.60
2016,04,19,00,33,13.70
2016,04,19,00,34,13.70
2016,04,19,00,35,13.80
2016,04,19,00,36,13.80
2016,04,19,00,37,13.90
2016,04,19,00,38,13.90
2016,04,19,00,39,14.00
2016,04,19,00,40,14.00
2016,04,19,00,41,14.10
2016,04,19,00,42,14.10
2016,04,19,00,43,14.10
2016,04,19,00,44,14.20
2016,04,19,00,45,14.20
2016,04,19,00,46,14.20
2016,04,19,00,47,14.30
2016,04,19,00,48,14.30
2016,04,19,00,49,14.30
2016,04,19,00,50,14.30
2016,04,19,00,51,14.40
2016,04,19,00,52,14.40
2016,04,19,00,53,14.40
2016,04,19,00,54,14.40
2016,04,19,00,55,14.50
2016,04,19,00,56,14.50
2016,04,19,00,57,14.50
2016,04,19,00,58,14.50
2016,04,19,00,59,14.50
2016,04,19,01,00,14.60
2016,04,19,01,01,14.60
2016,04,19,01,02,14.70
2016,04,19,01,03,14.70
2016,04,19,01,04,14.80
2016,04,19,01,05,14.90
2016,04,19,01,06,15.00
2016,04,19,01,07,15.00
2016,04,19,01,08,15.10
2016,04,19,01,09,15.10
2016,04,19,01,10,15.20
2016,04,19,01,11,15.20
2016,04,19,01,12,15.20
2016,04,19,01,13,15.30
2016,04,19,01,14,15.30
2016,04,19,01,15,15.30
2016,04,19,01,16,15.30
2016,04,19,01,17,15.30
2016,04,19,01,18,15.30
2016,04,19,01,19,15.30
2016,04,19,01,20,15.40
2016,04,19,01,21,15.50
2016,04,19,01,22,15.70
2016,04,19,01,23,15.80
2016,04,19,01,24,15.80
2016,04,19,01,25,15.90
2016,04,19,01,26,16.00
2016,04,19,01,27,16.10
2016,04,19,01,28,16.10
2016,04,19,01,29,16.20
2016,04,19,01,30,16.20
2016,04,19,01,31,16.20
2016,04,19,01,32,16.20
2016,04,19,01,33,16.20
2016,04,19,01,34,16.20
2016,04,19,01,35,16.20
2016,04,19,01,36,16.20
2016,04,19,01,37,16.20
2016,04,19,01,38,16.10
2016,04,19,01,39,16.10
2016,04,19,01,40,16.00
2016,04,19,01,41,16.00
2016,04,19,01,42,15.90
2016,04,19,01,43,15.90
2016,04,19,01,44,15.80
2016,04,19,01,45,15.80
2016,04,19,01,46,15.70
2016,04,19,01,47,15.70
2016,04,19,01,48,15.70
2016,04,19,01,49,15.70
2016,04,19,01,50,15.70
2016,04,19,01,51,15.60
2016,04,19,01,52,15.60
2016,04,19,01,53,15.50
2016,04,19,01,54,15.50
2016,04,19,01,55,15.40
2016,04,19,01,56,15.40
2016,04,19,01,57,15.40
2016,04,19,01,58,15.40
2016,04,19,01,59,15.40
2016,04,19,02,00,15.40
2016,04,19,02,01,15.40
2016,04,19,02,02,15.30
2016,04,19,02,03,15.30
2016,04,19,02,04,15.30
2016,04,19,02,05,15.30
2016,04,19,02,06,15.30
2016,04,19,02,07,15.20
2016,04,19,02,08,15.20
2016,04,19,02,09,15.20
2016,04,19,02,10,15.10
2016,04,19,02,11,15.10
2016,04,19,02,12,15.10
2016,04,19,02,13,15.10
2016,04,19,02,14,15.10
2016,04,19,02,15,15.10
2016,04,19,02,16,15.10
2016,04,19,02,17,15.10
2016,04,19,02,18,15.10
2016,04,19,02,19,15.00
2016,04,19,02,20,15.00
2016,04,19,02,21,15.10
2016,04,19,02,22,15.10
2016,04,19,02,23,15.10
2016,04,19,02,24,15.10
2016,04,19,02,25,15.10
2016,04,19,02,26,15.10
2016,04,19,02,27,15.10
2016,04,19,02,28,15.10
2016,04,19,02,29,15.10
2016,04,19,02,30,15.10
2016,04,19,02,31,15.10
2016,04,19,02,32,15.10
2016,04,19,02,33,15.00
2016,04,19,02,34,15.00
2016,04,19,02,35,15.00
2016,04,19,02,36,15.00
2016,04,19,02,37,15.00
2016,04,19,02,38,15.00
2016,04,19,02,39,15.00
2016,04,19,02,40,15.10
2016,04,19,02,41,15.10
2016,04,19,02,42,15.10
2016,04,19,02,43,15.10
2016,04,19,02,44,15.10
2016,04,19,02,45,15.00
2016,04,19,02,46,15.00
2016,04,19,02,47,15.00
2016,04,19,02,48,15.00
2016,04,19,02,49,14.90
2016,04,19,02,50,14.90
2016,04,19,02,51,14.90
2016,04,19,02,52,14.80
2016,04,19,02,53,14.80
2016,04,19,02,54,14.80
2016,04,19,02,55,14.80
2016,04,19,02,56,14.70
2016,04,19,02,57,14.70
2016,04,19,02,58,14.70
2016,04,19,02,59,14.70
2016,04,19,03,00,14.70
2016,04,19,03,01,14.70
2016,04,19,03,02,14.60
2016,04,19,03,03,14.60
2016,04,19,03,04,14.60
2016,04,19,03,05,14.60
2016,04,19,03,06,14.60
2016,04,19,03,07,14.60
2016,04,19,03,08,14.60
2016,04,19,03,09,14.60
2016,04,19,03,10,14.60
2016,04,19,03,11,14.50
2016,04,19,03,12,14.50
2016,04,19,03,13,14.40
2016,04,19,03,14,14.40
2016,04,19,03,15,14.40
2016,04,19,03,16,14.40
2016,04,19,03,17,14.40
2016,04,19,03,18,14.40
2016,04,19,03,19,14.40
2016,04,19,03,20,14.40
2016,04,19,03,21,14.40
2016,04,19,03,22,14.40
2016,04,19,03,23,14.40
2016,04,19,03,24,14.40
2016,04,19,03,25,14.30
2016,04,19,03,26,14.40
2016,04,19,03,27,14.40
2016,04,19,03,28,14.40
2016,04,19,03,29,14.40
2016,04,19,03,30,14.30
2016,04,19,03,31,14.30
2016,04,19,03,32,14.30
2016,04,19,03,33,14.30
2016,04,19,03,34,14.30
2016,04,19,03,35,14.30
2016,04,19,03,36,14.30
2016,04,19,03,37,14.30
2016,04,19,03,38,14.30
2016,04,19,03,39,14.30
2016,04,19,03,40,14.30
2016,04,19,03,41,14.30
2016,04,19,03,42,14.30
2016,04,19,03,43,14.30
2016,04,19,03,44,14.30
2016,04,19,03,45,14.30
2016,04,19,03,46,14.30
2016,04,19,03,47,14.30
2016,04,19,03,48,14.30
2016,04,19,03,49,14.30
2016,04,19,03,50,14.20
2016,04,19,03,51,14.20
2016,04,19,03,52,14.20
2016,04,19,03,53,14.20
2016,04,19,03,54,14.20
2016,04,19,03,55,14.20
2016,04,19,03,56,14.20
2016,04,19,03,57,14.10
2016,04,19,03,58,14.10
2016,04,19,03,59,14.10
2016,04,19,04,00,14.10
2016,04,19,04,01,14.10
2016,04,19,04,02,14.10
2016,04,19,04,03,14.10
2016,04,19,04,04,14.10
2016,04,19,04,05,14.10
2016,04,19,04,06,14.10
2016,04,19,04,07,14.00
2016,04,19,04,08,14.00
2016,04,19,04,09,14.00
2016,04,19,04,10,14.10
2016,04,19,04,11,14.00
2016,04,19,04,12,14.00
2016,04,19,04,13,14.00
2016,04,19,04,14,14.00
2016,04,19,04,15,14.00
2016,04,19,04,16,14.00
2016,04,19,04,17,14.00
2016,04,19,04,18,14.00
2016,04,19,04,19,14.00
2016,04,19,04,20,14.00
2016,04,19,04,21,14.10
2016,04,19,04,22,14.10
2016,04,19,04,23,14.10
2016,04,19,04,24,14.10
2016,04,19,04,25,14.00
2016,04,19,04,26,14.00
2016,04,19,04,27,14.00
2016,04,19,04,28,13.90
2016,04,19,04,29,13.90
2016,04,19,04,30,13.90
2016,04,19,04,31,13.90
2016,04,19,04,32,13.90
2016,04,19,04,33,13.90
2016,04,19,04,34,13.90
2016,04,19,04,35,13.90
2016,04,19,04,36,14.00
2016,04,19,04,37,14.00
2016,04,19,04,38,14.00
2016,04,19,04,39,14.00
2016,04,19,04,40,14.00
2016,04,19,04,41,14.00
2016,04,19,04,42,14.00
2016,04,19,04,43,14.10
2016,04,19,04,44,14.10
2016,04,19,04,45,14.10
2016,04,19,04,46,14.00
2016,04,19,04,47,14.00
2016,04,19,04,48,14.00
2016,04,19,04,49,14.00
2016,04,19,04,50,14.00
2016,04,19,04,51,14.00
2016,04,19,04,52,13.90
2016,04,19,04,53,13.90
2016,04,19,04,54,13.90
2016,04,19,04,55,13.90
2016,04,19,04,56,13.90
2016,04,19,04,57,13.90
2016,04,19,04,58,13.90
2016,04,19,04,59,13.90
2016,04,19,05,00,13.90
2016,04,19,05,01,13.90
2016,04,19,05,02,13.90
2016,04,19,05,03,13.90
2016,04,19,05,04,13.90
2016,04,19,05,05,13.90
2016,04,19,05,06,13.80
2016,04,19,05,07,13.80
2016,04,19,05,08,13.80
2016,04,19,05,09,13.80
2016,04,19,05,10,13.70
2016,04,19,05,11,13.70
2016,04,19,05,12,13.70
2016,04,19,05,13,13.70
2016,04,19,05,14,13.70
2016,04,19,05,15,13.70
2016,04,19,05,16,13.70
2016,04,19,05,17,13.60
2016,04,19,05,18,13.60
2016,04,19,05,19,13.60
2016,04,19,05,20,13.60
2016,04,19,05,21,13.60
2016,04,19,05,22,13.60
2016,04,19,05,23,13.60
2016,04,19,05,24,13.50
2016,04,19,05,25,13.50
2016,04,19,05,26,13.50
2016,04,19,05,27,13.40
2016,04,19,05,28,13.40
2016,04,19,05,29,13.40
2016,04,19,05,30,13.40
2016,04,19,05,31,13.40
2016,04,19,05,32,13.40
2016,04,19,05,33,13.30
2016,04,19,05,34,13.30
2016,04,19,05,35,13.30
2016,04,19,05,36,13.30
2016,04,19,05,37,13.30
2016,04,19,05,38,13.30
2016,04,19,05,39,13.20
2016,04,19,05,40,13.20
2016,04,19,05,41,13.20
2016,04,19,05,42,13.20
2016,04,19,05,43,13.20
2016,04,19,05,44,13.20
2016,04,19,05,45,13.10
2016,04,19,05,46,13.10
2016,04,19,05,47,13.10
2016,04,19,05,48,13.10
2016,04,19,05,49,13.10
2016,04,19,05,50,13.10
2016,04,19,05,51,13.10
2016,04,19,05,52,13.10
2016,04,19,05,53,13.10
2016,04,19,05,54,13.00
2016,04,19,05,55,13.00
2016,04,19,05,56,13.00
2016,04,19,05,57,13.00
2016,04,19,05,58,13.00
2016,04,19,05,59,13.00
2016,04,19,06,00,12.90
2016,04,19,06,01,12.90
2016,04,19,06,02,12.90
2016,04,19,06,03,12.90
2016,04,19,06,04,12.90
2016,04,19,06,05,12.90
2016,04,19,06,06,12.90
2016,04,19,06,07,12.90
2016,04,19,06,08,12.90
2016,04,19,06,09,12.90
2016,04,19,06,10,12.90
2016,04,19,06,11,12.90
2016,04,19,06,12,12.90
2016,04,19,06,13,12.80
2016,04,19,06,14,12.80
2016,04,19,06,15,12.80
2016,04,19,06,16,12.80
2016,04,19,06,17,12.80
2016,04,19,06,18,12.80
2016,04,19,06,19,12.70
2016,04,19,06,20,12.80
2016,04,19,06,21,12.80
2016,04,19,06,22,12.80
2016,04,19,06,23,12.80
2016,04,19,06,24,12.80
2016,04,19,06,25,12.80
2016,04,19,06,26,12.90
2016,04,19,06,27,12.90
2016,04,19,06,28,12.80
2016,04,19,06,29,12.80
2016,04,19,06,30,12.90
2016,04,19,06,31,12.90
2016,04,19,06,32,12.90
2016,04,19,06,33,12.90
2016,04,19,06,34,12.90
2016,04,19,06,35,12.90
2016,04,19,06,36,12.90
2016,04,19,06,37,12.90
2016,04,19,06,38,12.90
2016,04,19,06,39,12.90
2016,04,19,06,40,12.90
2016,04,19,06,41,12.90
2016,04,19,06,42,12.90
2016,04,19,06,43,12.90
2016,04,19,06,44,12.90
2016,04,19,06,45,12.90
2016,04,19,06,46,12.90
2016,04,19,06,47,12.90
2016,04,19,06,48,12.90
2016,04,19,06,49,12.90
2016,04,19,06,50,12.90
2016,04,19,06,51,12.90
2016,04,19,06,52,13.00
2016,04,19,06,53,13.00
2016,04,19,06,54,13.00
2016,04,19,06,55,13.00
2016,04,19,06,56,13.00
2016,04,19,06,57,13.10
2016,04,19,06,58,13.10
2016,04,19,06,59,13.10
2016,04,19,07,00,13.10
2016,04,19,07,01,13.00
2016,04,19,07,02,13.00
2016,04,19,07,03,13.00
2016,04,19,07,04,13.00
2016,04,19,07,05,13.00
2016,04,19,07,06,13.00
2016,04,19,07,07,13.00
2016,04,19,07,08,13.00
2016,04,19,07,09,13.10
2016,04,19,07,10,13.10
2016,04,19,07,11,13.10
2016,04,19,07,12,13.10
2016,04,19,07,13,13.10
2016,04,19,07,14,13.10
2016,04,19,07,15,13.10
2016,04,19,07,16,13.10
2016,04,19,07,17,13.10
2016,04,19,07,18,13.10
2016,04,19,07,19,13.10
2016,04,19,07,20,13.10
2016,04,19,07,21,13.10
2016,04,19,07,22,13.10
2016,04,19,07,23,13.10
2016,04,19,07,24,13.10
2016,04,19,07,25,13.10
2016,04,19,07,26,13.10
2016,04,19,07,27,13.10
2016,04,19,07,28,13.10
2016,04,19,07,29,13.10
2016,04,19,07,30,13.20
2016,04,19,07,31,13.20
2016,04,19,07,32,13.20
2016,04,19,07,33,13.20
2016,04,19,07,34,13.20
2016,04,19,07,35,13.20
2016,04,19,07,36,13.20
2016,04,19,07,37,13.20
2016,04,19,07,38,13.30
2016,04,19,07,39,13.30
2016,04,19,07,40,13.30
2016,04,19,07,41,13.30
2016,04,19,07,42,13.30
2016,04,19,07,43,13.30
2016,04,19,07,44,13.30
2016,04,19,07,45,13.30
2016,04,19,07,46,13.30
2016,04,19,07,47,13.30
2016,04,19,07,48,13.30
2016,04,19,07,49,13.20
2016,04,19,07,50,13.20
2016,04,19,07,51,13.20
2016,04,19,07,52,13.30
2016,04,19,07,53,13.30
2016,04,19,07,54,13.30
2016,04,19,07,55,13.30
2016,04,19,07,56,13.30
2016,04,19,07,57,13.30
2016,04,19,07,58,13.30
2016,04,19,07,59,13.30
2016,04,19,08,00,13.30
2016,04,19,08,01,13.30
2016,04,19,08,02,13.30
2016,04,19,08,03,13.40
2016,04,19,08,04,13.40
2016,04,19,08,05,13.40
2016,04,19,08,06,13.40
2016,04,19,08,07,13.40
2016,04,19,08,08,13.50
2016,04,19,08,09,13.50
2016,04,19,08,10,13.50
2016,04,19,08,11,13.50
2016,04,19,08,12,13.60
2016,04,19,08,13,13.60
2016,04,19,08,14,13.60
2016,04,19,08,15,13.60
2016,04,19,08,16,13.60
2016,04,19,08,17,13.70
2016,04,19,08,18,13.70
2016,04,19,08,19,13.70
2016,04,19,08,20,13.70
2016,04,19,08,21,13.70
2016,04,19,08,22,13.80
2016,04,19,08,23,13.80
2016,04,19,08,24,13.80
2016,04,19,08,25,13.80
2016,04,19,08,26,13.90
2016,04,19,08,27,13.90
2016,04,19,08,28,14.00
2016,04,19,08,29,14.00
2016,04,19,08,30,14.00
2016,04,19,08,31,14.10
2016,04,19,08,32,14.10
2016,04,19,08,33,14.10
2016,04,19,08,34,14.10
2016,04,19,08,35,14.20
2016,04,19,08,36,14.20
2016,04,19,08,37,14.20
2016,04,19,08,38,14.20
2016,04,19,08,39,14.20
2016,04,19,08,40,14.20
2016,04,19,08,41,14.30
2016,04,19,08,42,14.30
2016,04,19,08,43,14.30
2016,04,19,08,44,14.40
2016,04,19,08,45,14.40
2016,04,19,08,46,14.40
2016,04,19,08,47,14.40
2016,04,19,08,48,14.40
2016,04,19,08,49,14.50
2016,04,19,08,50,14.50
2016,04,19,08,51,14.50
2016,04,19,08,52,14.50
2016,04,19,08,53,14.60
2016,04,19,08,54,14.60
2016,04,19,08,55,14.60
2016,04,19,08,56,14.60
2016,04,19,08,57,14.60
2016,04,19,08,58,14.60
2016,04,19,08,59,14.60
2016,04,19,09,00,14.70
2016,04,19,09,01,14.70
2016,04,19,09,02,14.70
2016,04,19,09,03,14.70
2016,04,19,09,04,14.70
2016,04,19,09,05,14.70
2016,04,19,09,06,14.80
2016,04,19,09,07,14.80
2016,04,19,09,08,14.80
2016,04,19,09,09,14.80
2016,04,19,09,10,14.80
2016,04,19,09,11,14.80
2016,04,19,09,12,14.90
2016,04,19,09,13,14.90
2016,04,19,09,14,14.90
2016,04,19,09,15,14.90
2016,04,19,09,16,14.90
2016,04,19,09,17,14.90
2016,04,19,09,18,14.90
2016,04,19,09,19,14.90
2016,04,19,09,20,14.90
2016,04,19,09,21,15.00
2016,04,19,09,22,15.00
2016,04,19,09,23,15.00
2016,04,19,09,24,15.00
2016,04,19,09,25,15.00
2016,04,19,09,26,15.00
2016,04,19,09,27,15.10
2016,04,19,09,28,15.10
2016,04,19,09,29,15.10
2016,04,19,09,30,15.10
2016,04,19,09,31,15.20
2016,04,19,09,32,15.20
2016,04,19,09,33,15.20
2016,04,19,09,34,15.20
2016,04,19,09,35,15.30
2016,04,19,09,36,15.30
2016,04,19,09,37,15.30
2016,04,19,09,38,15.40
2016,04,19,09,39,15.40
2016,04,19,09,40,15.50
2016,04,19,09,41,15.50
2016,04,19,09,42,15.60
2016,04,19,09,43,15.60
2016,04,19,09,44,15.70
2016,04,19,09,45,15.70
2016,04,19,09,46,15.80
2016,04,19,09,47,15.80
2016,04,19,09,48,15.80
2016,04,19,09,49,15.80
2016,04,19,09,50,15.90
2016,04,19,09,51,15.90
2016,04,19,09,52,15.90
2016,04,19,09,53,16.00
2016,04,19,09,54,16.00
2016,04,19,09,55,16.00
2016,04,19,09,56,16.00
2016,04,19,09,57,16.00
2016,04,19,09,58,16.10
2016,04,19,09,59,16.10
2016,04,19,10,00,16.10
2016,04,19,10,01,16.10
2016,04,19,10,02,16.10
2016,04,19,10,03,16.10
2016,04,19,10,04,16.20
2016,04,19,10,05,16.10
2016,04,19,10,06,16.20
2016,04,19,10,07,16.20
2016,04,19,10,08,16.10
2016,04,19,10,09,16.10
2016,04,19,10,10,16.10
2016,04,19,10,11,16.10
2016,04,19,10,12,16.20
2016,04,19,10,13,16.20
2016,04,19,10,14,16.30
2016,04,19,10,15,16.30
2016,04,19,10,16,16.30
2016,04,19,10,17,16.40
2016,04,19,10,18,16.40
2016,04,19,10,19,16.40
2016,04,19,10,20,16.50
2016,04,19,10,21,16.50
2016,04,19,10,22,16.60
2016,04,19,10,23,16.60
2016,04,19,10,24,16.60
2016,04,19,10,25,16.70
2016,04,19,10,26,16.70
2016,04,19,10,27,16.70
2016,04,19,10,28,16.60
2016,04,19,10,29,16.60
2016,04,19,10,30,16.60
2016,04,19,10,31,16.70
2016,04,19,10,32,16.70
2016,04,19,10,33,16.80
2016,04,19,10,34,16.90
2016,04,19,10,35,16.90
2016,04,19,10,36,17.00
2016,04,19,10,37,17.10
2016,04,19,10,38,17.20
2016,04,19,10,39,17.30
2016,04,19,10,40,17.30
2016,04,19,10,41,17.40
2016,04,19,10,42,17.50
2016,04,19,10,43,17.60
2016,04,19,10,44,17.70
2016,04,19,10,45,17.70
2016,04,19,10,46,17.80
2016,04,19,10,47,17.90
2016,04,19,10,48,17.90
2016,04,19,10,49,18.00
2016,04,19,10,50,18.00
2016,04,19,10,51,18.10
2016,04,19,10,52,18.10
2016,04,19,10,53,18.20
2016,04,19,10,54,18.20
2016,04,19,10,55,18.20
2016,04,19,10,56,18.10
2016,04,19,10,57,18.10
2016,04,19,10,58,18.10
2016,04,19,10,59,18.00
2016,04,19,11,00,17.90
2016,04,19,11,01,17.90
2016,04,19,11,02,18.00
2016,04,19,11,03,18.00
2016,04,19,11,04,18.10
2016,04,19,11,05,18.10
2016,04,19,11,06,18.20
2016,04,19,11,07,18.20
2016,04,19,11,08,18.30
2016,04,19,11,09,18.30
2016,04,19,11,10,18.40
2016,04,19,11,11,18.40
2016,04,19,11,12,18.50
2016,04,19,11,13,18.60
2016,04,19,11,14,18.60
2016,04,19,11,15,18.60
2016,04,19,11,16,18.60
2016,04,19,11,17,18.70
2016,04,19,11,18,18.70
2016,04,19,11,19,18.80
2016,04,19,11,20,18.80
2016,04,19,11,21,18.80
2016,04,19,11,22,18.80
2016,04,19,11,23,18.80
2016,04,19,11,24,18.80
2016,04,19,11,25,18.80
2016,04,19,11,26,18.70
2016,04,19,11,27,18.60
2016,04,19,11,28,18.50
2016,04,19,11,29,18.40
2016,04,19,11,30,18.40
2016,04,19,11,31,18.40
2016,04,19,11,32,18.50
2016,04,19,11,33,18.50
2016,04,19,11,34,18.50
2016,04,19,11,35,18.60
2016,04,19,11,36,18.70
2016,04,19,11,37,18.70
2016,04,19,11,38,18.70
2016,04,19,11,39,18.70
2016,04,19,11,40,18.80
2016,04,19,11,41,18.80
2016,04,19,11,42,18.90
2016,04,19,11,43,19.00
2016,04,19,11,44,19.00
2016,04,19,11,45,19.10
2016,04,19,11,46,19.10
2016,04,19,11,47,19.10
2016,04,19,11,48,19.10
2016,04,19,11,49,19.20
2016,04,19,11,50,19.30
2016,04,19,11,51,19.30
2016,04,19,11,52,19.40
2016,04,19,11,53,19.40
2016,04,19,11,54,19.40
2016,04,19,11,55,19.40
2016,04,19,11,56,19.50
2016,04,19,11,57,19.50
2016,04,19,11,58,19.50
2016,04,19,11,59,19.60
2016,04,19,12,00,19.60
2016,04,19,12,01,19.60
2016,04,19,12,02,19.60
2016,04,19,12,03,19.50
2016,04,19,12,04,19.50
2016,04,19,12,05,19.40
2016,04,19,12,06,19.40
2016,04,19,12,07,19.40
2016,04,19,12,08,19.40
2016,04,19,12,09,19.40
2016,04,19,12,10,19.40
2016,04,19,12,11,19.40
2016,04,19,12,12,19.40
2016,04,19,12,13,19.50
2016,04,19,12,14,19.60
2016,04,19,12,15,19.60
2016,04,19,12,16,19.70
2016,04,19,12,17,19.80
2016,04,19,12,18,19.90
2016,04,19,12,19,19.90
2016,04,19,12,20,20.00
2016,04,19,12,21,20.20
2016,04,19,12,22,20.30
2016,04,19,12,23,20.40
2016,04,19,12,24,20.40
2016,04,19,12,25,20.40
2016,04,19,12,26,20.50
2016,04,19,12,27,20.50
2016,04,19,12,28,20.60
2016,04,19,12,29,20.60
2016,04,19,12,30,20.60
2016,04,19,12,31,20.60
2016,04,19,12,32,20.70
2016,04,19,12,33,20.70
2016,04,19,12,34,20.80
2016,04,19,12,35,20.80
2016,04,19,12,36,20.80
2016,04,19,12,37,20.90
2016,04,19,12,38,21.00
2016,04,19,12,39,21.00
2016,04,19,12,40,21.10
2016,04,19,12,41,21.20
2016,04,19,12,42,21.20
2016,04,19,12,43,21.30
2016,04,19,12,44,21.50
2016,04,19,12,45,21.50
2016,04,19,12,46,21.40
2016,04,19,12,47,21.30
2016,04,19,12,48,21.20
2016,04,19,12,49,21.10
2016,04,19,12,50,21.10
2016,04,19,12,51,21.10
2016,04,19,12,52,21.00
2016,04,19,12,53,21.00
2016,04,19,12,54,20.90
2016,04,19,12,55,20.90
2016,04,19,12,56,20.90
2016,04,19,12,57,20.90
2016,04,19,12,58,21.00
2016,04,19,12,59,21.00
2016,04,19,13,00,21.00
2016,04,19,13,01,21.00
2016,04,19,13,02,21.10
2016,04,19,13,03,21.10
2016,04,19,13,04,21.00
2016,04,19,13,05,21.00
2016,04,19,13,06,20.90
2016,04,19,13,07,20.90
2016,04,19,13,08,20.80
2016,04,19,13,09,20.80
2016,04,19,13,10,20.70
2016,04,19,13,11,20.70
2016,04,19,13,12,20.70
2016,04,19,13,13,20.70
2016,04,19,13,14,20.70
2016,04,19,13,15,20.70
2016,04,19,13,16,20.70
2016,04,19,13,17,20.70
2016,04,19,13,18,20.70
2016,04,19,13,19,20.60
2016,04,19,13,20,20.60
2016,04,19,13,21,20.50
2016,04,19,13,22,20.50
2016,04,19,13,23,20.50
2016,04,19,13,24,20.60
2016,04,19,13,25,20.70
2016,04,19,13,26,20.80
2016,04,19,13,27,20.80
2016,04,19,13,28,20.80
2016,04,19,13,29,20.80
2016,04,19,13,30,20.80
2016,04,19,13,31,20.70
2016,04,19,13,32,20.70
2016,04,19,13,33,20.70
2016,04,19,13,34,20.70
2016,04,19,13,35,20.60
2016,04,19,13,36,20.60
2016,04,19,13,37,20.60
2016,04,19,13,38,20.60
2016,04,19,13,39,20.60
2016,04,19,13,40,20.70
2016,04,19,13,41,20.70
2016,04,19,13,42,20.80
2016,04,19,13,43,20.80
2016,04,19,13,44,20.80
2016,04,19,13,45,20.80
2016,04,19,13,46,20.80
2016,04,19,13,47,20.80
2016,04,19,13,48,20.80
2016,04,19,13,49,20.90
2016,04,19,13,50,21.00
2016,04,19,13,51,21.10
2016,04,19,13,52,21.20
2016,04,19,13,53,21.30
2016,04,19,13,54,21.30
2016,04,19,13,55,21.30
2016,04,19,13,56,21.50
2016,04,19,13,57,21.60
2016,04,19,13,58,21.60
2016,04,19,13,59,21.70
2016,04,19,14,00,21.70
2016,04,19,14,01,21.70
2016,04,19,14,02,21.70
2016,04,19,14,03,21.70
2016,04,19,14,04,21.70
2016,04,19,14,05,21.70
2016,04,19,14,06,21.70
2016,04,19,14,07,21.80
2016,04,19,14,08,21.90
2016,04,19,14,09,21.90
2016,04,19,14,10,22.00
2016,04,19,14,11,22.10
2016,04,19,14,12,22.10
2016,04,19,14,13,22.10
2016,04,19,14,14,22.20
2016,04,19,14,15,22.20
2016,04,19,14,16,22.20
2016,04,19,14,17,22.30
2016,04,19,14,18,22.30
2016,04,19,14,19,22.30
2016,04,19,14,20,22.30
2016,04,19,14,21,22.30
2016,04,19,14,22,22.30
2016,04,19,14,23,22.30
2016,04,19,14,24,22.30
2016,04,19,14,25,22.30
2016,04,19,14,26,22.30
2016,04,19,14,27,22.30
2016,04,19,14,28,22.40
2016,04,19,14,29,22.40
2016,04,19,14,30,22.40
2016,04,19,14,31,22.40
2016,04,19,14,32,22.30
2016,04,19,14,33,22.20
2016,04,19,14,34,22.10
2016,04,19,14,35,22.00
2016,04,19,14,36,22.00
2016,04,19,14,37,21.90
2016,04,19,14,38,21.80
2016,04,19,14,39,21.70
2016,04,19,14,40,21.70
2016,04,19,14,41,21.60
2016,04,19,14,42,21.50
2016,04,19,14,43,21.40
2016,04,19,14,44,21.40
2016,04,19,14,45,21.40
2016,04,19,14,46,21.40
2016,04,19,14,47,21.40
2016,04,19,14,48,21.40
2016,04,19,14,49,21.40
2016,04,19,14,50,21.40
2016,04,19,14,51,21.50
2016,04,19,14,52,21.60
2016,04,19,14,53,21.60
2016,04,19,14,54,21.70
2016,04,19,14,55,21.60
2016,04,19,14,56,21.60
2016,04,19,14,57,21.50
2016,04,19,14,58,21.40
2016,04,19,14,59,21.30
2016,04,19,15,00,21.20
2016,04,19,15,01,21.20
2016,04,19,15,02,21.10
2016,04,19,15,03,21.10
2016,04,19,15,04,21.10
2016,04,19,15,05,21.10
2016,04,19,15,06,21.10
2016,04,19,15,07,21.10
2016,04,19,15,08,21.10
2016,04,19,15,09,21.00
2016,04,19,15,10,21.00
2016,04,19,15,11,20.90
2016,04,19,15,12,20.90
2016,04,19,15,13,20.90
2016,04,19,15,14,20.90
2016,04,19,15,15,20.90
2016,04,19,15,16,20.90
2016,04,19,15,17,20.80
2016,04,19,15,18,20.80
2016,04,19,15,19,20.70
2016,04,19,15,20,20.70
2016,04,19,15,21,20.80
2016,04,19,15,22,20.80
2016,04,19,15,23,20.80
2016,04,19,15,24,20.80
2016,04,19,15,25,20.80
2016,04,19,15,26,20.80
2016,04,19,15,27,20.80
2016,04,19,15,28,20.80
2016,04,19,15,29,20.70
2016,04,19,15,30,20.70
2016,04,19,15,31,20.70
2016,04,19,15,32,20.70
2016,04,19,15,33,20.70
2016,04,19,15,34,20.70
2016,04,19,15,35,20.70
2016,04,19,15,36,20.70
2016,04,19,15,37,20.70
2016,04,19,15,38,20.70
2016,04,19,15,39,20.80
2016,04,19,15,40,20.80
2016,04,19,15,41,20.80
2016,04,19,15,42,20.70
2016,04,19,15,43,20.60
2016,04,19,15,44,20.50
2016,04,19,15,45,20.40
2016,04,19,15,46,20.30
2016,04,19,15,47,20.30
2016,04,19,15,48,20.30
2016,04,19,15,49,20.30
2016,04,19,15,50,20.30
2016,04,19,15,51,20.40
2016,04,19,15,52,20.40
2016,04,19,15,53,20.40
2016,04,19,15,54,20.40
2016,04,19,15,55,20.50
2016,04,19,15,56,20.60
2016,04,19,15,57,20.70
2016,04,19,15,58,20.70
2016,04,19,15,59,20.80
2016,04,19,16,00,20.90
2016,04,19,16,01,20.80
2016,04,19,16,02,20.80
2016,04,19,16,03,20.80
2016,04,19,16,04,20.90
2016,04,19,16,05,20.90
2016,04,19,16,06,20.90
2016,04,19,16,07,21.00
2016,04,19,16,08,21.00
2016,04,19,16,09,21.10
2016,04,19,16,10,21.10
2016,04,19,16,11,21.10
2016,04,19,16,12,21.00
2016,04,19,16,13,21.10
2016,04,19,16,14,21.10
2016,04,19,16,15,21.10
2016,04,19,16,16,21.10
2016,04,19,16,17,21.10
2016,04,19,16,18,21.10
2016,04,19,16,19,21.10
2016,04,19,16,20,21.10
2016,04,19,16,21,21.10
2016,04,19,16,22,21.20
2016,04,19,16,23,21.20
2016,04,19,16,24,21.30
2016,04,19,16,25,21.30
2016,04,19,16,26,21.30
2016,04,19,16,27,21.40
2016,04,19,16,28,21.40
2016,04,19,16,29,21.40
2016,04,19,16,30,21.40
2016,04,19,16,31,21.40
2016,04,19,16,32,21.40
2016,04,19,16,33,21.40
2016,04,19,16,34,21.40
2016,04,19,16,35,21.40
2016,04,19,16,36,21.50
2016,04,19,16,37,21.50
2016,04,19,16,38,21.50
2016,04,19,16,39,21.50
2016,04,19,16,40,21.50
2016,04,19,16,41,21.50
2016,04,19,16,42,21.50
2016,04,19,16,43,21.50
2016,04,19,16,44,21.60
2016,04,19,16,45,21.60
2016,04,19,16,46,21.60
2016,04,19,16,47,21.60
2016,04,19,16,48,21.60
2016,04,19,16,49,21.60
2016,04,19,16,50,21.60
2016,04,19,16,51,21.60
2016,04,19,16,52,21.60
2016,04,19,16,53,21.60
2016,04,19,16,54,21.60
2016,04,19,16,55,21.50
2016,04,19,16,56,21.50
2016,04,19,16,57,21.50
2016,04,19,16,58,21.50
2016,04,19,16,59,21.50
2016,04,19,17,00,21.50
2016,04,19,17,01,21.60
2016,04,19,17,02,21.60
2016,04,19,17,03,21.60
2016,04,19,17,04,21.60
2016,04,19,17,05,21.70
2016,04,19,17,06,21.70
2016,04,19,17,07,21.70
2016,04,19,17,08,21.70
2016,04,19,17,09,21.70
2016,04,19,17,10,21.70
2016,04,19,17,11,21.70
2016,04,19,17,12,21.70
2016,04,19,17,13,21.80
2016,04,19,17,14,21.80
2016,04,19,17,15,21.80
2016,04,19,17,16,21.80
2016,04,19,17,17,21.90
2016,04,19,17,18,21.90
2016,04,19,17,19,21.90